[[{"header":{"parameterUnit":"m.s-1","parameterCategory":1,"la1":30.2991,"la2":30.254,"lo1":-89.0895,"lo2":-89.0444,"dy":0.0017,"dx":0.0017,"nx":28,"ny":28,"refTime":"2024-10-20T21:00:00:Z","depth":0,"parameterNumber":2,"parameterNumberName":"U-component_of_WINDS"},"data":[0,0,0,0,0,0,0,0,0,0,0,0,0,0,0,0,0,0,0,0,0,0,0,0,0,0,0,0,0,0,0,0,0,0,0,0,0,0,0,0,0,0,0,0,0,0,0,0,0,0,0,0,0,0,0,0,0,0,-2.0095,-2.0097,0,-2.03,-2.0302,-2.0305,-2.033,-2.0328,-2.0326,-2.0325,-2.0535,-2.0542,-2.0549,0,0,0,0,0,0,0,0,0,0,0,0,0,-1.9727,-1.9734,-2.0095,-2.0097,-2.01,-2.03,-2.0302,-2.0305,-2.0331,-2.0328,-2.0326,-2.0324,-2.0532,-2.0541,-2.055,0,0,0,0,0,0,0,0,0,0,0,0,0,-1.9905,-1.9736,-2.0094,-2.0137,-2.0143,-2.0299,-2.0302,-2.0306,-2.0331,-2.0328,-2.0325,-2.0323,-2.0529,-2.054,-2.0551,-2.0679,0,0,-2.0585,-2.059,0,0,0,0,0,0,0,0,-1.9895,-1.9919,-2.0128,-2.0134,-2.0141,-2.0287,-2.025,-2.0431,-2.0332,-2.026,-2.0325,-2.0321,-2.0454,-2.0472,-2.0517,-2.0689,-2.0698,-2.0586,-2.0593,-2.0598,-2.0601,0,0,0,0,0,0,0,-1.9883,-1.991,-2.0176,-2.0131,-2.0139,-2.0146,-2.0168,-2.0284,-2.0371,-2.0266,-2.0268,-2.0292,-2.0457,-2.0506,-2.0522,-2.0701,-2.0586,-2.0596,-2.0603,-2.0607,-2.0993,-2.0997,0,0,0,0,0,0,-1.9862,-1.9899,-2.0169,-2.0182,-2.0008,-2.0155,-2.018,-2.0243,-2.037,-2.0387,-2.0294,-2.0292,-2.0488,-2.0509,-2.0529,-2.0691,-2.0598,-2.0608,-2.0615,-2.099,-2.0994,-2.0998,0,0,0,0,0,0,-1.9854,-1.9886,-2.0161,-2.0042,-2.0077,-2.0165,-2.0235,-2.0248,-2.0297,-2.0392,-2.0407,-2.0328,-2.0487,-2.0513,-2.0643,-2.0698,-2.0613,-2.0623,-2.0986,-2.0991,-2.0996,-2.1013,0,0,0,0,0,0,-1.9844,-1.9883,-1.9932,-2.0043,-2.0083,-2.0271,-2.0239,-2.0255,-2.0316,-2.0315,-2.0427,-2.0443,-2.0486,-2.0626,-2.0654,-2.0712,-2.0632,-2.0981,-2.0988,-2.0994,-2.1008,-2.1018,-2.1027,0,0,0,0,0,-1.9831,-1.9928,-1.9935,-1.9967,-2.0147,-2.0274,-2.0297,-2.0346,-2.032,-2.0371,-2.0432,-2.0439,-2.0687,-2.0639,-2.0671,-2.0733,-2.0978,-2.0986,-2.0994,-2.1003,-2.1016,-2.1027,0,0,0,0,0,0,-1.9821,-1.9943,-1.9952,-2.0088,-2.017,-2.0278,-2.0343,-2.0357,-2.0448,-2.0444,-2.05,-2.0525,-2.0652,-2.0705,-2.0649,-2.0866,-2.083,-2.0845,-2.0827,-2.0839,-2.0849,-2.0834,-2.0641,0,0,0,0,0,-1.9835,-1.9928,-2.0029,-2.014,-2.0181,-2.0255,-2.0312,-2.0342,-2.043,-2.0465,-2.0536,-2.0621,-2.0719,-2.0782,-2.0876,-2.1015,-2.1041,-2.1074,-2.1083,-2.1091,-2.1103,-2.1184,-2.1201,-2.1025,-2.1024,-2.1024,0,0,-1.9864,-1.9943,-1.9998,-2.014,-2.0207,-2.0304,-2.0284,-2.0385,-2.0458,-2.048,-2.0608,-2.0663,-2.0762,-2.0897,-2.096,-2.0945,-2.1158,-2.1101,-2.1106,-2.1115,-2.1194,-2.1211,-2.1225,-2.103,-2.1029,-2.1028,0,0,-1.9968,-2.0035,-2.0136,-2.0205,-2.0308,-2.0357,-2.0381,-2.0487,-2.0525,-2.0653,-2.0673,-2.076,-2.0926,-2.0997,-2.1055,-2.1187,-2.1198,-2.1217,-2.1267,-2.1345,-2.1359,-2.1372,-2.1422,-2.1439,-2.1228,-2.1229,-2.1229,0,-1.9992,-2.0137,-2.0186,-2.0288,-2.0351,-2.0377,-2.048,-2.0544,-2.0673,-2.0716,-2.0697,-2.0909,-2.0977,-2.1131,-2.1163,-2.1208,-2.1239,-2.1205,-2.1353,-2.1366,-2.1379,-2.1428,-2.1446,-2.123,-2.123,-2.123,-2.123,0,-2.0162,-2.0263,-2.0332,-2.0457,-2.0528,-2.063,-2.0696,-2.0761,-2.0786,-2.0837,-2.0969,-2.1052,-2.1166,-2.1204,-2.1228,-2.1363,-2.135,-2.1341,-2.1308,-2.1397,-2.1444,-2.1462,-2.1233,-2.1232,-2.1232,-2.1231,0,0,-2.0266,-2.0418,-2.0443,-2.0501,-2.0617,-2.0697,-2.0801,-2.0912,-2.0969,-2.1057,-2.1147,-2.1288,-2.1282,-2.1347,-2.138,-2.1448,-2.1552,-2.1431,-2.1435,-2.1453,-2.1709,-2.1716,-2.1737,-2.1559,-2.1563,-2.1565,-2.1701,0,-2.0384,-2.0571,-2.062,-2.0779,-2.0874,-2.0901,-2.0992,-2.1074,-2.1125,-2.1214,-2.127,-2.1371,-2.1353,-2.1393,-2.1462,-2.1524,-2.1604,-2.1515,-2.1646,-2.165,-2.1622,-2.1761,-2.1769,-2.1893,-2.172,-2.1723,-2.1725,0,-2.0548,-2.0641,-2.081,-2.0917,-2.0959,-2.104,-2.1148,-2.1232,-2.1326,-2.1359,-2.1433,-2.146,-2.1571,-2.153,-2.1686,-2.1624,-2.168,-2.1719,-2.1725,-2.1741,-2.1694,-2.1783,-2.1933,-2.1953,-2.1754,-2.1751,-2.1749,0,-2.061,-2.0777,-2.0901,-2.095,-2.1077,-2.1134,-2.1189,-2.1281,-2.1346,-2.144,-2.1483,-2.1588,-2.1646,-2.1728,-2.1783,-2.1748,-2.1936,-2.1898,-2.1968,-2.1967,-2.2007,-2.2004,-2.2171,-2.2039,-2.2039,-2.2039,-2.2038,0,-2.0739,-2.0842,-2.0931,-2.1007,-2.1125,-2.1179,-2.1294,-2.1351,-2.1432,-2.1521,-2.1549,-2.1632,-2.1699,-2.1791,-2.1835,-2.1959,-2.1984,-2.2015,-2.2026,-2.2014,-2.2011,-2.2053,-2.2047,-2.2044,-2.2043,-2.2042,-2.2041,0,-2.0829,-2.0892,-2.1029,-2.1139,-2.1169,-2.1251,-2.1345,-2.1421,-2.1473,-2.1586,-2.1615,-2.1698,-2.1808,-2.1871,-2.201,-2.2039,-2.2178,-2.2183,-2.2147,-2.2152,-2.2219,-2.2213,-2.2421,-2.2453,-2.2297,-2.2298,-2.2299,0,-2.0908,-2.0988,-2.1107,-2.1169,-2.1226,-2.1324,-2.1392,-2.1449,-2.1518,-2.1633,-2.1696,-2.1808,-2.1901,-2.2077,-2.215,-2.2257,-2.2267,-2.2332,-2.2283,-2.2269,-2.2271,-2.2267,-2.2276,-2.2341,-2.2343,-2.2344,-2.2345,0,-2.1043,-2.1071,-2.1166,-2.1274,-2.1353,-2.1441,-2.1527,-2.1576,-2.1648,-2.1724,-2.1838,-2.1911,-2.2053,-2.2166,-2.2279,-2.2337,-2.2355,-2.2359,-2.2382,-2.2372,-2.2348,-2.2365,-2.2173,-2.2355,-2.2354,-2.2353,-2.2352,-2.2352,-2.1132,-2.1206,-2.1302,-2.1408,-2.148,-2.1561,-2.1638,-2.1701,-2.1797,-2.1918,-2.1946,-2.2067,-2.2162,-2.2316,-2.2377,-2.2474,-2.2462,-2.2493,-2.2502,-2.2509,-2.2513,-2.2331,-2.2494,-2.2494,-2.2494,-2.2493,-2.2493,0,-2.1271,-2.1335,-2.1432,-2.1553,-2.1637,-2.1645,-2.1742,-2.1813,-2.1918,-2.2005,-2.2097,-2.2229,-2.2339,-2.2421,-2.2533,-2.2595,-2.2606,-2.2623,-2.262,-2.2634,-2.2516,-2.2487,-2.2612,-2.2612,-2.2612,-2.2612,-2.2612,-2.2612,-2.1354,-2.148,-2.152,-2.1683,-2.1746,-2.1865,-2.192,-2.1996,-2.2066,-2.2212,-2.2304,-2.2356,-2.2443,-2.2562,-2.2664,-2.2685,-2.2726,-2.2743,-2.2766,-2.2654,-2.2642,-2.2629,-2.2603,-2.2751,-2.2751,-2.2876,-2.2877,-2.2878]},{"header":{"parameterUnit":"m.s-1","parameterCategory":1,"la1":30.2991,"la2":30.254,"lo1":-89.0895,"lo2":-89.0444,"dy":0.0017,"dx":0.0017,"nx":28,"ny":28,"refTime":"2024-10-20T21:00:00:Z","depth":0,"parameterNumber":3,"parameterNumberName":"V-component_of_WINDS"},"data":[0,0,0,0,0,0,0,0,0,0,0,0,0,0,0,0,0,0,0,0,0,0,0,0,0,0,0,0,0,0,0,0,0,0,0,0,0,0,0,0,0,0,0,0,0,0,0,0,0,0,0,0,0,0,0,0,0,0,-1.7608,-1.7608,0,-1.7573,-1.7572,-1.7572,-1.7525,-1.7525,-1.7524,-1.7523,-1.7486,-1.7486,-1.7486,0,0,0,0,0,0,0,0,0,0,0,0,0,-1.7636,-1.7636,-1.7609,-1.7608,-1.7608,-1.7573,-1.7572,-1.7572,-1.7526,-1.7525,-1.7524,-1.7523,-1.7486,-1.7486,-1.7486,0,0,0,0,0,0,0,0,0,0,0,0,0,-1.7615,-1.7636,-1.7609,-1.758,-1.7577,-1.7573,-1.7572,-1.7572,-1.7526,-1.7525,-1.7523,-1.7522,-1.7486,-1.7486,-1.7486,-1.7506,0,0,-1.7484,-1.7484,0,0,0,0,0,0,0,0,-1.7616,-1.7614,-1.7585,-1.7582,-1.7579,-1.7552,-1.7568,-1.7549,-1.7526,-1.7545,-1.7523,-1.7522,-1.7509,-1.7507,-1.7503,-1.7504,-1.7502,-1.7484,-1.7484,-1.7484,-1.7484,0,0,0,0,0,0,0,-1.7617,-1.7615,-1.7594,-1.7585,-1.7581,-1.7569,-1.7565,-1.7565,-1.7534,-1.7544,-1.754,-1.7537,-1.7507,-1.7503,-1.7501,-1.7502,-1.7484,-1.7484,-1.7484,-1.7484,-1.7517,-1.7518,0,0,0,0,0,0,-1.7623,-1.7617,-1.7595,-1.7593,-1.7595,-1.757,-1.7565,-1.7562,-1.7534,-1.7529,-1.7538,-1.7535,-1.7504,-1.7502,-1.75,-1.7521,-1.7484,-1.7483,-1.7483,-1.7516,-1.7517,-1.7518,0,0,0,0,0,0,-1.7624,-1.7622,-1.7597,-1.7604,-1.76,-1.757,-1.7568,-1.7562,-1.7558,-1.7529,-1.7524,-1.7539,-1.7503,-1.75,-1.7504,-1.7519,-1.7483,-1.7483,-1.7514,-1.7516,-1.7518,-1.7564,0,0,0,0,0,0,-1.7625,-1.7622,-1.763,-1.7604,-1.76,-1.7603,-1.7569,-1.7562,-1.7557,-1.7553,-1.7529,-1.7524,-1.7502,-1.7505,-1.7504,-1.7518,-1.7483,-1.7513,-1.7515,-1.7517,-1.7561,-1.7567,-1.7572,0,0,0,0,0,-1.7626,-1.7645,-1.7631,-1.7628,-1.7609,-1.7603,-1.7601,-1.7575,-1.7558,-1.7566,-1.7547,-1.7525,-1.7518,-1.7506,-1.7504,-1.7518,-1.7512,-1.7514,-1.7517,-1.7558,-1.7566,-1.7572,0,0,0,0,0,0,-1.7673,-1.7641,-1.7625,-1.7636,-1.7623,-1.7596,-1.7604,-1.7584,-1.7575,-1.7572,-1.754,-1.7535,-1.7543,-1.7531,-1.7519,-1.7535,-1.7511,-1.7514,-1.7543,-1.755,-1.7556,-1.7558,-1.7482,0,0,0,0,0,-1.7684,-1.7683,-1.7655,-1.7667,-1.7661,-1.7634,-1.7631,-1.7612,-1.7597,-1.7592,-1.7574,-1.756,-1.7554,-1.7551,-1.7545,-1.7558,-1.7552,-1.7567,-1.7573,-1.7577,-1.758,-1.7585,-1.7591,-1.7527,-1.7527,-1.7526,0,0,-1.7708,-1.769,-1.7692,-1.7676,-1.7664,-1.7663,-1.763,-1.763,-1.7629,-1.7592,-1.7594,-1.758,-1.7563,-1.7572,-1.7575,-1.7562,-1.7596,-1.7581,-1.7585,-1.7584,-1.7589,-1.7595,-1.76,-1.7528,-1.7528,-1.7528,0,0,-1.7751,-1.7738,-1.7746,-1.7734,-1.7716,-1.7697,-1.7699,-1.7675,-1.7665,-1.7667,-1.7638,-1.7636,-1.7628,-1.7616,-1.7609,-1.7647,-1.7626,-1.7645,-1.7675,-1.7681,-1.7686,-1.769,-1.7703,-1.7708,-1.7648,-1.7648,-1.7648,0,-1.7783,-1.7781,-1.7753,-1.7755,-1.7749,-1.7714,-1.7722,-1.7712,-1.7693,-1.7689,-1.7675,-1.7663,-1.7649,-1.7654,-1.7663,-1.7659,-1.766,-1.7648,-1.7687,-1.7691,-1.7695,-1.7707,-1.7712,-1.7651,-1.765,-1.765,-1.765,0,-1.782,-1.7819,-1.7828,-1.781,-1.7805,-1.781,-1.7782,-1.778,-1.7762,-1.7745,-1.7747,-1.7728,-1.7717,-1.7717,-1.7699,-1.7719,-1.7712,-1.7693,-1.7668,-1.7704,-1.7715,-1.7719,-1.7654,-1.7653,-1.7652,-1.7652,0,0,-1.7892,-1.7858,-1.7862,-1.7853,-1.783,-1.7828,-1.7831,-1.782,-1.7819,-1.7806,-1.7808,-1.7801,-1.7783,-1.7775,-1.7756,-1.7761,-1.7791,-1.7741,-1.774,-1.7751,-1.7811,-1.7826,-1.7832,-1.7776,-1.7777,-1.7778,-1.7813,0,-1.7931,-1.7935,-1.7909,-1.792,-1.7918,-1.7885,-1.7888,-1.7874,-1.7857,-1.7853,-1.7835,-1.783,-1.7807,-1.7802,-1.7806,-1.7787,-1.7803,-1.7784,-1.7777,-1.7777,-1.7783,-1.7838,-1.7853,-1.7887,-1.7817,-1.7818,-1.7818,0,-1.7976,-1.7966,-1.7977,-1.7952,-1.7951,-1.7954,-1.7941,-1.7937,-1.792,-1.7908,-1.7899,-1.7876,-1.7877,-1.7853,-1.7853,-1.7841,-1.7837,-1.7827,-1.7827,-1.7826,-1.78,-1.7838,-1.7897,-1.7903,-1.7824,-1.7824,-1.7823,0,-1.8028,-1.8017,-1.8021,-1.8014,-1.7986,-1.7989,-1.7977,-1.7959,-1.7954,-1.7943,-1.7939,-1.7928,-1.7922,-1.7914,-1.7888,-1.7873,-1.7891,-1.7866,-1.7881,-1.7882,-1.7887,-1.7887,-1.7947,-1.7884,-1.7884,-1.7884,-1.7884,0,-1.8074,-1.8081,-1.8044,-1.8047,-1.8054,-1.8024,-1.8032,-1.8017,-1.8001,-1.8,-1.797,-1.797,-1.7937,-1.7932,-1.7912,-1.7915,-1.7913,-1.7903,-1.7897,-1.7905,-1.7907,-1.7902,-1.7899,-1.7885,-1.7885,-1.7884,-1.7884,0,-1.8132,-1.8108,-1.811,-1.8083,-1.8076,-1.8083,-1.8059,-1.8061,-1.8042,-1.8041,-1.8039,-1.801,-1.8004,-1.7977,-1.7964,-1.7951,-1.796,-1.795,-1.7966,-1.7963,-1.7979,-1.7978,-1.8039,-1.8045,-1.7979,-1.7979,-1.798,0,-1.8163,-1.8168,-1.8142,-1.8139,-1.8129,-1.8124,-1.8119,-1.809,-1.8085,-1.8065,-1.8069,-1.8059,-1.8051,-1.8041,-1.8019,-1.8008,-1.7997,-1.8019,-1.7995,-1.8003,-1.7997,-1.7997,-1.7998,-1.8024,-1.8025,-1.8026,-1.8026,0,-1.8221,-1.8208,-1.8201,-1.819,-1.8184,-1.8174,-1.8162,-1.8161,-1.8128,-1.8124,-1.8117,-1.811,-1.8096,-1.8087,-1.8073,-1.806,-1.8038,-1.8034,-1.8037,-1.8045,-1.8055,-1.805,-1.798,-1.8033,-1.8032,-1.8032,-1.8031,-1.8031,-1.8267,-1.8269,-1.8251,-1.8244,-1.8232,-1.8221,-1.8221,-1.8202,-1.8195,-1.8182,-1.8165,-1.816,-1.8141,-1.812,-1.8108,-1.8103,-1.8091,-1.8096,-1.8097,-1.8098,-1.8102,-1.8055,-1.8101,-1.81,-1.81,-1.81,-1.81,0,-1.8323,-1.8309,-1.8303,-1.8287,-1.8281,-1.8261,-1.8246,-1.8242,-1.8238,-1.8223,-1.8215,-1.8206,-1.8197,-1.8173,-1.8162,-1.8162,-1.8152,-1.816,-1.816,-1.8157,-1.8114,-1.8113,-1.8169,-1.8169,-1.8169,-1.8169,-1.8169,-1.8169,-1.8351,-1.8355,-1.834,-1.8336,-1.8322,-1.8317,-1.831,-1.83,-1.8288,-1.8279,-1.8272,-1.8256,-1.8237,-1.8224,-1.8215,-1.8208,-1.8205,-1.8217,-1.8207,-1.8167,-1.816,-1.8154,-1.8153,-1.8216,-1.8216,-1.825,-1.8251,-1.8251]}]]